sat.trackr.live / text

‹ back to catalog

STARLINK-11501 [DTC]

NORAD 62268 · 2024-237B

PAYLOAD ACTIVE UNKNOWN

§ Identity

Operator
Country
US
Launch date
2024-12-08
Launch site
AFETR
Launch vehicle
Mass (kg)
RCS (m²)

Purposes: comms

External: N2YO · Heavens-Above · Gunter

§ Orbital elements

Epoch: 2026-05-25T04:21:00.374112Z

Period
91.67 min
Inclination
42.9994°
Eccentricity
0.0001296
Mean motion
15.70891714 rev/d
Perigee alt
355.5 km
Apogee alt
357.2 km
Semi-major
6,734.5 km
B*
1.7316e-3
RAAN
315.4355°
Arg perigee
39.7385°
Mean anomaly
320.3577°
Rev number
8,503

§ Raw data

STARLINK-11501 [DTC]1 62268U 24237B   26145.18125433  .00228454  00000+0  17316-2 0  99912 62268  42.9994 315.4355 0001296  39.7385 320.3577 15.70891714 85038

JSON: /api/v1/satellites/62268 · /tle

For live sub-satellite position, see the globe view (requires WebGL).

§ Visibility from observer

Set your observer location to see the next 7 days of passes ≥ 10°. The values pass through the URL so the page stays shareable.

No JS? Fill the form by hand. The geolocation button needs JavaScript.